Retour au catalogue

TACSAT 4

ActifMilitaireHEO
NORAD 37818·PAYLOAD·🇺🇸 United States

Lancé Sep 27, 2011 depuis Kodiak Launch Complex

Loading…

Prochains Passages (prochaines 24 heures)

TLE

FraisSource: Space-Track

Époque: Sep 12, 2026, 10:57 UTC

1 37818U 11052A   26255.45631381  .00001320  00000-0  50355-3 0  9994
2 37818  62.8460  59.9989 4628251 286.4725  28.8352  6.15737826330162

Suivez TACSAT 4 en temps réel avec AllMySat

Download on the App Store